Terug naar catalogus

PSLV-C54 PS4

ActiefSSO
NORAD 54362·ROCKET BODY·🇮🇳 India
Deze satellietnaam is nog niet bevestigd door officiële bronnen.

Gelanceerd Nov 26, 2022 vanaf Satish Dhawan Space Centre

Loading…

Volgende Passages (komende 24 uur)

TLE

VersSource: Space-Track

Epoch: Sep 14, 2026, 22:11 UTC

1 54362U 22158B   26257.92455387  .00022449  00000-0  30993-3 0  9991
2 54362  97.4995  27.1263 0008922 348.4193  11.6856 15.57148626212703

Volg PSLV-C54 PS4 in realtime met AllMySat

Download on the App Store